Location: Gand�
(15.0971°N, 12.6564°W)
Time: 02:54:51
(UTC+00:00)

Cosmos 1300 - Pass Details

Date: 07 August 2020
Orbit: 511 x 514 km, 82.5° (Epoch: 23 September)

Event Time Altitude Azimuth Distance (km) Brightness Sun altitude
Exits shadow 05:50:58 15° 256° (WSW) 1,425 4.3 -10.8°
Maximum altitude 05:52:04 17° 277° (W) 1,345 4.3 -10.6°
Drops below altitude 10° 05:54:36 10° 319° (NW) 1,733 5.2 -10.0°
Sets 05:57:19 0° 340° (NNW) 2,620 6.3 -9.4°
